METEOR 2-11 DEB, 40705

Orbit data source: Space-Track

METEOR 2-11 DEB, 40705 is space debris in LEO originally from a launch on Thu, 05 Jul 1984 UTC launched from the Plesetsk Missile And Space Complex (PKMTR). Debris objects in space refer to the collection of defunct objects orbiting the Earth. Examples of debris include non-operational satellites, rocket bodies, and fragments generated from explosions, collisions, or faulty payload assembly.

Loading next visibility...
Identifier
40705, 1984-072G
Orbit
LEO
Country
Flag of CISCIS
Related business
Manufacturer
Unknown
Mission
Spacecraft
Bus & Motor
Unknown
Mass
Unknown
Launch date (UTC)
1984-07-05 (41 years ago)
Launch vehicle
Unknown
Launch site
Plesetsk Missile And Space Complex (PKMTR)
Object type
Payload
Rocket body
Debris
Shape & HBR
Unknown
Radar Cross Section
Small (<0.1 m²)

Expand to show TLE details & history
Last TLE update: 3 days ago

TLE from 3 days ago
0 METEOR 2-11 DEB
1 40705U 84072G   25259.20499531  .00001165  00000-0  82618-3 0  9994
2 40705  82.5205 230.4990 0029870 102.7965 257.6543 13.96692293549070
Epoch: 2025-09-16T04:55Z
TLE epoch observation values (Epoch: 2025-09-16T04:55:11.594Z)
Latitude
-0.00002°
Longitude
161.30205°
Altitude
912.905 km
Speed
7.393 km/s
True Right ascension
15h 21m 59s
True Declination
0° 00' 00"
Sunlit
Object was in daylight at epoch
Visualization orbit readout
Latitude
Unknown
Longitude
Unknown
Altitude
Unknown
Speed
Unknown
Apparent Right ascension
Unknown
Apparent Declination
Unknown
Sunlit
N/A
Visualization observer readout
Local Sidereal Time
18:31:56
Azimuth
Unknown
Elevation
Unknown
Doppler factor
Unknown
Orbital elements
Apogee altitude
924.154 km
Perigee altitude
880.66 km
Semi-major axis
7,280.544 km
Eccentricity
0.00299
Inclination
82.5205°
RAAN
230.499°
Arg. of periapsis
102.7965°
True anomaly
257.3202°
Mean anomaly
257.6543°
Eccentric anomaly
257.48722°
Mean motion
3.49379 °/min
Orbital period
103.04 mins
BSTAR
0.00082618
Loading maneuver chart data...
Computing Atmospheric mass density...
Loading historical data...
Loading historical data...
Loading historical data...
Loading historical data...
Loading historical data...
Loading historical data...
Loading historical data...

Documentation

Showing up to 5 results
|